Wind_Speed
25 21 20 20 20 21 21 20 19 19 18 17 17 16 15 15 15 14 13 12 11 11 10 9 10 10 8 7 7 7 7 7 8 9 8 8 7 7 7 7 6 6
26 23 21 20 20 20 21 20 19 19 18 18 17 16 15 14 15 15 14 13 12 12 11 10 11 11 9 8 8 8 8 8 8 9 9 8 8 8 8 7 7 7
28 24 22 22 21 20 20 19 19 18 17 17 17 16 16 15 15 15 15 14 13 12 12 11 11 12 11 9 9 9 9 9 9 9 9 9 9 8 8 8 8 8
29 25 23 22 21 20 19 19 19 18 17 17 16 16 15 15 15 15 14 14 14 13 13 12 12 12 12 11 11 11 11 11 10 10 10 10 10 10 10 9 9 9
30 26 24 23 22 20 19 19 19 18 17 17 16 15 15 15 15 15 15 15 15 15 14 13 13 13 13 13 13 12 12 12 12 12 12 11 11 11 10 10 10 10
30 27 25 24 22 21 21 20 19 18 18 17 17 16 16 15 15 15 16 15 15 15 15 15 14 14 14 14 14 14 13 13 12 12 12 12 11 10 11 11 12 11
29 28 27 25 24 23 22 21 20 18 17 16 16 17 17 17 16 16 16 16 16 16 16 16 16 15 15 15 15 15 14 13 12 12 13 13 11 11 11 12 12 13
29 28 27 26 25 25 24 23 21 19 17 16 16 17 17 17 17 16 16 16 17 17 17 17 17 16 15 15 15 15 15 14 13 13 13 13 12 12 12 12 12 13
29 28 27 27 26 26 26 26 24 21 18 17 17 16 16 17 16 16 15 16 16 17 17 17 17 17 16 16 16 15 15 15 14 14 14 13 13 13 12 12 12 13
29 28 27 27 26 26 26 26 25 23 20 18 18 17 16 16 17 16 16 16 17 18 18 18 17 17 17 17 16 16 16 16 16 16 16 15 15 14 14 14 13 14
28 28 27 26 26 25 25 25 25 24 22 20 19 18 18 18 18 18 17 18 18 18 18 19 18 18 19 18 18 18 18 17 17 17 17 16 16 16 15 15 15 15
27 27 27 26 26 25 24 24 24 24 23 22 21 20 19 20 20 20 20 20 20 20 20 20 19 20 20 20 20 20 19 19 18 18 18 17 17 17 16 15 16 16
28 27 27 27 26 25 23 23 23 23 23 22 21 21 21 22 21 21 21 22 21 21 21 21 21 21 21 21 21 21 20 20 19 19 19 19 19 19 18 17 16 16
29 28 27 26 25 24 23 23 22 22 22 21 21 21 22 23 23 22 22 22 23 23 23 23 23 23 23 22 21 21 21 21 21 21 21 21 21 21 20 20 18 18
28 27 27 25 24 24 24 24 24 23 23 23 22 22 22 23 23 23 23 23 24 24 24 24 24 24 24 24 24 23 22 22 22 22 21 21 20 20 20 21 20 20
27 26 25 25 25 25 25 25 24 24 24 24 24 23 23 23 23 23 23 23 24 24 24 25 26 26 25 25 24 25 24 23 23 22 22 21 20 20 20 21 21 21
23 24 23 24 24 24 25 24 24 24 24 25 24 23 23 24 24 24 24 24 23 23 24 25 26 26 25 23 23 24 25 26 25 23 22 21 21 21 21 21 21 22
15 18 19 21 21 21 22 22 22 23 23 23 23 22 22 23 24 25 26 25 24 24 25 26 27 28 27 25 25 24 24 26 27 24 23 22 23 23 22 22 22 22
14 16 17 18 18 17 17 17 17 18 19 19 20 20 20 21 22 24 25 25 26 26 26 26 27 28 28 27 27 25 23 25 27 25 23 23 23 24 24 22 22 21
13 15 15 15 14 13 13 12 12 13 14 14 15 15 15 15 16 16 16 18 21 22 23 24 25 26 26 26 25 25 24 25 25 23 23 24 24 24 24 24 23 22
8 10 11 10 9 9 10 10 10 12 12 12 11 10 10 9 8 8 8 10 13 17 19 20 21 22 22 23 24 24 24 24 22 21 23 26 25 25 25 24 24 23
6 7 8 7 7 7 9 10 11 12 12 11 10 10 10 9 8 8 9 11 14 16 17 16 17 19 19 20 21 22 23 23 21 20 22 24 26 26 25 25 24 23
6 7 6 5 5 6 7 9 9 10 10 10 10 10 9 9 9 11 13 13 13 13 13 13 15 18 17 16 17 17 18 19 19 19 20 21 23 24 23 23 24 24
9 9 9 8 6 2 4 5 7 9 10 9 10 12 13 13 13 12 13 13 11 11 11 11 13 14 14 14 14 14 14 15 15 16 17 19 21 22 22 22 22 22
11 12 12 11 8 3 2 3 4 6 7 6 6 9 11 12 11 10 10 11 10 10 10 8 9 10 11 12 12 12 12 12 13 14 15 17 19 20 21 22 22 22
7 9 10 10 8 4 1 0 1 3 4 3 3 3 4 6 7 7 7 7 5 5 4 4 4 5 6 8 9 10 10 10 11 11 11 13 15 15 17 19 21 23
Wind_Direction
230 234 238 241 243 240 238 237 235 234 233 234 236 235 234 234 231 230 235 243 248 252 256 250 237 232 238 251 263 270 271 271 278 283 284 286 287 287 289 293 298 299
228 234 239 241 242 241 240 240 238 238 239 243 244 243 243 243 238 235 238 243 248 252 255 251 241 235 239 249 256 261 264 267 274 278 278 279 282 283 283 289 296 300
226 233 237 238 240 241 241 241 240 242 246 248 249 249 250 249 245 241 242 245 250 254 255 253 245 239 243 250 256 258 260 265 271 271 270 271 274 277 277 281 287 291
224 231 236 237 239 242 242 240 240 243 248 251 252 252 254 254 250 246 247 250 251 254 257 255 248 243 245 251 256 259 262 268 272 267 265 266 269 272 273 273 277 280
223 229 234 235 236 238 238 240 243 247 252 256 258 257 257 257 254 251 253 255 254 256 259 259 253 249 251 255 257 259 264 269 272 267 264 267 270 272 272 270 272 273
224 229 232 234 236 236 237 240 245 250 255 259 261 260 260 260 259 259 258 259 260 260 261 262 259 256 258 260 260 261 265 270 272 268 264 266 271 275 275 274 273 272
226 229 231 234 236 237 240 242 246 250 254 259 262 261 261 261 263 265 264 264 265 265 264 263 262 263 264 264 262 261 265 269 271 267 263 265 271 276 276 274 274 275
227 229 232 234 236 239 242 244 247 250 253 258 261 262 263 263 267 270 269 267 266 267 266 263 263 265 266 265 262 262 264 268 270 268 266 266 268 272 274 274 275 276
227 229 232 234 236 238 242 244 246 249 253 256 258 262 265 265 268 272 269 266 264 265 266 266 265 265 266 265 263 262 264 267 270 270 269 270 270 272 275 277 277 277
225 228 230 233 236 237 240 242 243 247 252 254 256 260 263 266 268 270 268 265 263 265 267 267 266 265 265 265 262 260 261 263 267 269 269 269 271 274 278 280 280 278
224 226 228 231 234 236 238 239 241 245 250 254 256 258 262 266 266 267 268 266 264 265 266 266 266 265 265 265 262 260 259 261 265 268 270 270 269 271 274 278 282 281
223 224 227 229 232 234 235 236 239 243 247 251 253 255 259 263 264 265 267 267 267 267 267 267 266 264 264 266 265 263 262 263 266 268 270 272 272 271 270 272 277 278
221 223 226 228 230 231 232 234 237 241 245 248 251 253 255 257 260 263 266 267 267 267 267 268 268 266 265 265 264 263 263 264 266 267 269 272 273 272 270 270 272 274
219 221 224 227 228 229 230 231 234 237 240 243 247 251 254 257 259 262 266 268 268 268 269 269 268 267 265 264 263 262 262 264 265 267 270 272 273 272 269 267 269 270
216 217 220 223 225 227 229 231 233 236 238 240 242 245 250 255 260 265 269 269 267 268 270 269 268 268 267 266 264 262 262 264 265 266 269 271 272 270 267 263 265 268
215 215 217 220 223 227 230 232 234 236 238 240 242 244 246 250 255 262 267 268 268 270 270 269 269 268 267 267 267 267 266 264 264 266 267 268 270 270 267 261 260 265
212 212 215 219 224 228 232 235 239 241 243 243 243 244 246 248 252 256 261 265 267 268 269 269 267 264 264 268 271 273 272 267 265 267 267 266 268 270 270 264 259 261
215 215 218 224 228 233 238 241 245 247 248 248 247 248 250 251 253 254 256 260 263 264 266 265 263 263 265 268 267 267 269 267 265 266 265 264 266 269 270 267 262 261
216 223 228 233 235 238 242 245 247 250 251 251 251 253 254 255 257 256 257 258 259 261 262 261 260 262 264 264 262 262 265 263 261 262 263 263 265 268 269 267 264 262
213 227 234 236 235 236 237 238 240 244 246 247 249 253 257 260 262 262 262 262 262 260 258 257 258 260 262 261 260 262 263 260 256 258 262 264 265 267 267 265 262 261
208 225 233 230 223 223 223 223 230 235 238 244 249 254 260 266 267 262 262 272 276 270 263 259 257 257 257 258 258 260 262 259 255 254 256 261 264 265 265 265 264 263
188 202 216 211 201 208 215 219 227 233 238 244 249 254 257 257 254 254 257 260 262 263 263 262 261 259 257 258 260 261 261 260 259 256 254 256 260 262 263 266 268 267
149 157 149 136 160 198 220 234 244 246 246 247 250 255 260 257 254 257 261 257 250 253 258 258 259 260 259 261 263 264 264 263 263 262 260 258 259 261 264 268 270 268
106 106 98 91 95 154 253 287 297 287 282 280 270 266 267 269 268 266 264 262 255 256 258 255 255 259 263 268 272 273 274 272 269 267 265 262 260 260 262 265 268 269
82 76 78 84 88 104 265 312 327 310 317 333 311 284 273 270 268 260 253 253 251 253 256 256 257 262 268 276 280 282 283 281 278 275 268 263 264 265 266 265 264 264
64 60 64 70 76 85 125 313 316 306 327 354 339 295 269 263 264 251 237 233 234 241 249 251 257 267 278 287 292 293 292 289 287 284 279 275 274 274 276 274 268 266
Height
849 851 852 853 855 856 857 858 858 859 860 861 861 862 862 863 864 865 865 866 867 867 868 869 869 870 870 871 871 872 872 872 873 873 873 873 873 873 873 873 873 873
847 849 851 852 853 854 856 856 858 858 859 860 860 861 862 862 863 864 864 865 865 866 867 867 868 868 869 869 870 870 871 871 871 872 872 872 872 872 872 873 873 872
845 847 849 850 852 853 854 855 857 857 858 859 860 860 861 861 862 863 863 864 864 865 865 866 867 867 868 868 868 869 869 870 870 870 870 871 871 871 871 871 871 871
843 845 846 848 850 852 853 854 855 856 857 858 858 859 860 861 861 862 862 863 863 864 864 865 865 866 866 867 867 868 868 868 868 869 869 869 869 869 869 870 870 870
841 843 844 846 848 850 852 852 854 855 856 856 857 858 859 859 860 861 861 862 862 863 863 863 864 864 865 865 865 866 866 866 867 867 867 868 868 868 868 868 868 869
839 841 843 845 846 848 849 850 852 853 854 855 856 857 857 858 859 859 860 861 861 861 862 862 862 862 863 863 864 864 865 865 866 866 866 866 867 867 867 867 867 867
837 839 841 843 844 846 847 848 850 851 852 853 854 855 856 856 857 858 858 859 859 860 860 860 860 861 861 862 862 863 863 864 864 864 865 865 865 866 866 866 866 866
835 837 839 841 842 844 845 846 848 849 850 852 852 853 854 855 855 856 857 857 857 858 858 858 859 859 860 860 861 862 862 862 863 863 863 863 863 864 864 865 865 865
833 834 836 838 839 841 842 844 845 847 848 850 850 852 852 853 854 854 855 855 855 856 856 857 857 858 858 859 859 860 860 861 861 861 861 862 862 863 863 864 864 864
830 831 833 835 836 838 839 841 843 845 846 847 849 850 851 851 852 852 853 853 853 854 854 855 856 856 857 857 858 858 858 859 859 859 860 860 861 861 862 862 863 863
827 829 830 832 834 835 837 839 841 842 844 845 846 848 849 850 850 851 851 851 851 852 852 853 854 854 855 855 856 856 857 857 857 857 858 859 859 860 860 860 861 861
825 826 828 829 831 833 834 836 838 840 841 842 844 845 846 847 848 849 849 849 850 850 850 851 851 852 852 853 854 854 855 855 856 856 856 857 857 858 858 858 858 859
822 823 825 827 828 830 832 833 835 837 838 840 841 842 843 844 845 846 846 847 848 848 848 849 849 850 850 851 852 852 853 853 854 854 854 855 855 855 856 856 856 856
818 821 823 825 827 828 829 831 832 834 835 837 839 840 841 842 842 843 844 845 845 846 846 847 847 848 848 849 849 850 850 851 851 852 852 852 853 853 853 854 854 854
817 818 820 823 825 826 827 829 830 831 833 834 836 837 838 840 840 841 842 842 843 844 844 845 845 845 846 846 847 847 848 848 849 849 849 849 850 850 851 851 851 852
816 817 819 821 823 824 826 827 828 829 831 832 833 834 836 837 838 839 840 840 841 842 842 842 843 843 844 845 845 846 846 846 846 846 847 847 847 847 848 848 849 849
817 817 819 820 822 823 824 826 827 828 829 830 831 833 834 835 836 836 837 838 839 840 840 840 840 841 841 843 844 845 845 845 844 844 844 844 844 844 845 845 846 847
820 820 820 820 821 822 824 825 826 827 828 829 830 831 832 833 833 834 835 836 836 837 838 838 838 838 839 839 840 841 842 842 842 841 841 842 842 842 842 842 843 844
819 820 820 820 821 822 823 824 825 826 827 828 828 829 830 831 831 832 833 834 834 835 835 835 836 836 836 837 837 837 838 838 838 839 839 839 839 839 839 840 840 841
815 817 818 819 820 822 823 823 824 825 826 826 827 827 828 829 830 831 832 833 833 833 833 833 834 835 835 835 835 835 835 835 836 837 838 838 838 838 837 837 837 838
813 816 819 819 819 820 821 822 823 824 825 825 826 827 827 828 829 829 830 832 833 833 832 833 833 833 833 833 833 833 833 833 833 835 835 835 834 835 835 835 835 835
811 817 821 820 818 819 820 821 822 822 823 824 825 826 827 827 827 827 828 829 829 830 831 832 833 833 832 832 832 831 831 830 831 831 832 831 831 831 832 832 833 833
812 816 819 819 818 819 820 821 821 822 822 823 824 825 826 827 826 826 826 826 827 828 829 831 832 832 831 830 830 830 829 829 829 828 828 829 829 829 830 830 830 830
815 817 817 817 816 817 819 821 822 823 823 823 824 826 827 827 827 826 827 827 827 828 828 829 830 830 829 829 828 828 828 828 828 827 826 826 826 826 827 827 827 827
815 816 816 816 816 817 818 820 822 823 823 824 825 826 828 828 828 827 826 826 827 827 828 828 829 829 829 828 827 827 827 827 826 826 825 825 824 824 824 824 824 824
813 814 816 817 819 819 819 820 822 822 822 823 824 826 828 829 829 827 826 826 827 827 827 828 828 828 828 827 827 827 826 825 825 825 824 824 824 823 823 822 822 821